Temp
7 7 7 7 8 8 9 9 11 11 12 13 13 13 13 13 13 13 13 13 14 14
6 6 6 7 7 7 8 9 9 9 10 11 11 11 12 13 13 13 14 14 14 14
6 7 7 7 7 7 7 7 8 9 9 9 10 9 11 11 11 12 13 13 13 13
6 6 6 6 6 6 7 7 7 7 7 8 8 8 9 9 10 10 10 11 12 13
5 5 5 5 5 5 6 6 6 6 6 6 7 7 7 7 7 7 8 9 10 10
5 5 4 4 4 5 5 5 5 6 5 5 5 5 5 4 5 6 7 7 7 7
4 4 4 4 5 4 4 4 4 4 4 5 5 5 5 5 5 5 5 5 6 6
4 4 4 4 4 4 4 4 4 5 5 5 4 3 3 3 4 4 5 5 5 5
3 3 3 3 3 3 3 3 3 3 3 3 3 3 2 2 2 2 2 2 2 4
3 3 3 3 3 3 2 2 2 2 2 2 2 1 1 1 2 2 2 1 2 2
3 2 2 2 1 1 1 1 1 1 1 1 2 1 1 1 1 1 1 1 1 1
1 1 1 0 0 0 -0 -0 -0 -0 -0 -0 1 1 1 -0 0 0 0 0 0 1
1 1 1 0 0 0 -0 -1 -1 -0 -0 -0 -0 0 0 -1 -1 -0 -0 -0 -0 -0
0 -0 -0 -1 -1 -1 -1 -1 -1 -1 -1 -1 -1 -1 -1 -1 -1 -1 -1 -0 -1 -1
Height
758 757 756 754 751 747 743 741 738 736 733 736 736 738 741 742 746 750 755 756 758 760
766 762 759 755 755 751 746 745 743 739 738 737 738 739 738 740 743 745 747 749 752 752
767 763 761 760 756 753 750 748 746 742 743 741 741 740 738 740 742 740 741 742 744 745
770 767 766 762 759 758 756 754 752 750 748 744 744 742 742 742 740 739 739 736 734 736
774 773 770 766 765 763 760 759 757 754 751 748 747 747 746 743 742 741 739 738 737 737
777 775 772 770 769 766 764 762 760 757 754 752 750 749 746 745 743 743 741 739 738 738
780 778 776 774 772 770 767 765 762 759 757 756 754 752 749 747 745 743 740 739 737 735
781 779 777 774 773 771 768 765 763 760 757 755 752 750 748 745 743 740 738 737 734 733
782 779 777 775 773 770 767 764 761 759 756 754 751 749 746 743 740 738 736 734 731 729
780 778 776 774 771 769 766 764 761 758 756 753 751 749 747 745 741 738 735 734 731 728
780 778 776 774 771 769 765 762 759 756 754 751 747 745 743 741 739 736 734 731 727 724
779 776 774 771 768 767 764 760 757 755 752 749 745 742 738 736 733 730 727 724 722 720
776 772 769 767 765 763 761 758 755 751 749 746 742 739 736 734 731 727 722 719 717 716
771 769 768 766 763 760 757 755 751 747 744 741 739 735 733 731 729 725 722 718 715 712
Wind_Speed
21 19 17 17 18 20 21 21 20 16 8 3 6 9 7 8 14 24 26 25 27 29
19 20 21 21 19 21 22 20 18 19 17 14 12 11 2 5 11 16 21 30 31 30
20 22 22 22 23 23 22 20 19 19 17 16 14 12 10 9 10 6 23 29 28 29
22 22 21 23 23 22 21 21 21 19 17 17 15 14 11 10 11 13 15 14 10 19
20 20 21 21 21 20 21 21 21 20 19 18 16 15 15 14 14 12 12 14 13 13
18 19 20 20 19 20 19 19 19 20 21 20 18 16 16 16 16 15 13 13 13 15
14 15 16 16 18 18 18 18 19 18 17 15 14 15 16 16 16 16 16 16 15 15
12 12 13 14 15 15 15 15 15 16 17 18 17 15 15 16 15 16 17 16 15 15
9 11 13 14 14 15 15 16 16 17 17 17 17 17 16 16 18 17 14 14 16 17
11 12 15 17 19 18 17 18 18 17 18 18 17 14 14 14 16 18 17 15 16 17
12 12 13 15 15 16 16 16 17 17 17 19 20 19 17 16 16 17 18 17 17 16
12 13 14 16 16 17 16 18 18 18 19 20 22 21 21 20 20 20 19 19 18 18
15 17 19 19 20 19 19 20 19 20 20 21 22 21 19 17 17 18 18 19 19 18
18 17 17 18 19 19 19 21 22 23 25 24 21 21 19 16 16 16 17 17 19 20
Wind_Direction
46 52 47 45 40 40 43 36 36 47 71 110 217 218 197 196 204 215 236 243 251 247
48 52 47 47 45 40 38 30 30 33 40 46 51 64 89 260 242 233 242 245 248 252
51 49 47 44 42 40 39 36 32 28 24 23 18 17 23 9 1 301 247 245 244 247
52 52 51 50 45 41 39 37 36 33 31 33 28 21 12 355 350 340 333 350 271 252
51 49 48 48 44 42 42 40 37 35 34 31 27 21 16 14 7 357 339 329 322 320
43 40 39 39 37 36 35 35 32 32 30 27 23 17 14 7 1 352 347 341 334 325
42 38 34 29 28 24 22 21 22 23 23 21 17 11 5 358 354 348 342 338 335 331
24 23 24 23 20 16 15 13 9 4 3 0 0 360 355 352 348 343 335 331 333 326
7 8 10 6 2 0 358 357 357 355 353 349 348 345 342 344 339 339 334 327 325 321
352 350 351 349 346 347 346 344 344 345 344 339 338 339 330 329 323 326 326 318 314 315
341 332 328 328 333 334 332 333 333 333 333 330 328 330 325 323 315 313 312 318 320 311
334 328 325 326 329 329 326 326 326 325 326 326 323 326 320 319 316 314 312 313 314 318
331 332 331 327 324 321 319 316 314 315 319 320 320 321 317 313 309 306 310 311 312 310
334 329 327 322 320 319 318 315 313 313 313 314 315 313 312 309 304 299 297 296 303 305